Temp
25 25 25 26 26 26 26 26 26 26 25 25 25 24 24 24 24 23 23 24 23 23 24 24 24 24 24 23 23 23 23 23 23 22 22 22 22 22 22 23 23 23
25 25 25 26 26 26 26 26 26 26 25 25 25 25 24 24 24 23 23 24 23 24 24 24 23 24 23 23 23 23 22 23 22 22 22 22 22 22 22 23 23 23
25 25 25 26 26 26 26 26 26 26 25 25 25 25 24 24 24 24 24 24 24 24 24 24 23 23 23 23 23 23 22 22 22 22 22 22 22 22 22 22 22 23
25 25 26 26 26 26 26 26 26 26 25 25 25 25 25 25 24 24 24 24 24 24 24 24 23 23 23 23 23 23 22 22 22 22 22 22 22 22 22 22 22 22
25 25 26 26 26 26 26 26 26 26 25 25 25 25 25 25 25 24 24 24 24 24 24 23 23 23 23 22 22 22 22 22 22 22 22 22 22 22 22 22 22 22
25 25 26 26 26 26 26 26 26 26 26 25 25 25 25 25 25 24 24 24 24 24 24 23 23 23 23 22 22 22 22 22 22 22 22 22 22 22 22 22 22 22
25 26 26 26 26 26 26 26 26 26 26 25 25 25 25 25 25 25 24 24 24 24 24 23 23 23 23 22 22 22 22 22 22 22 22 22 22 22 22 22 22 22
26 26 26 26 26 26 26 26 26 26 26 26 25 25 25 25 25 25 25 24 24 24 24 23 23 23 23 22 22 22 22 22 22 22 22 22 22 22 22 22 22 22
26 26 26 26 26 26 26 26 26 26 26 26 26 25 25 25 25 25 25 25 24 24 24 24 23 23 23 22 22 22 22 22 22 22 22 22 22 22 22 22 22 22
26 26 26 26 26 26 26 26 26 26 26 26 26 26 25 25 25 25 25 25 24 24 24 23 23 23 23 22 22 22 22 22 22 22 22 22 22 22 22 22 22 22
26 26 26 26 26 26 26 26 26 26 26 26 26 26 25 25 25 25 25 24 24 24 24 23 23 23 23 22 22 22 22 22 22 22 22 22 22 22 22 22 22 22
26 26 26 26 26 26 26 26 26 26 26 26 26 26 25 25 25 25 24 24 24 24 24 23 23 23 23 22 22 22 22 22 22 22 22 22 21 22 22 22 22 22
26 26 26 26 26 26 26 26 26 26 26 26 26 26 25 25 25 25 25 24 24 24 24 23 23 23 23 22 22 22 22 22 22 22 22 22 21 22 22 22 22 22
27 26 26 26 26 26 26 26 26 26 26 26 26 26 26 25 25 25 24 24 24 24 23 23 23 23 22 22 22 22 22 22 22 21 21 21 21 21 22 22 22 22
27 27 27 27 26 26 26 27 27 27 27 26 26 26 26 26 25 25 24 24 24 24 23 23 23 23 22 22 22 22 22 22 21 21 21 21 21 21 21 21 21 22
27 27 27 27 27 27 27 27 27 27 27 27 26 26 26 26 25 25 24 24 24 23 23 23 23 23 22 22 22 22 22 22 21 21 21 21 21 21 21 21 21 21
27 27 27 27 27 27 27 27 27 27 27 27 27 26 26 26 26 25 25 24 24 23 23 23 23 22 22 22 22 22 22 22 21 21 21 21 21 21 21 21 21 21
28 27 27 27 27 27 27 27 27 27 27 27 26 26 26 26 26 25 25 24 24 23 23 23 23 22 22 22 22 22 22 22 21 21 21 21 21 21 21 21 21 21
28 28 27 27 27 27 27 27 27 26 27 27 26 26 26 26 26 26 25 25 24 23 23 23 23 22 22 22 22 22 22 21 21 21 21 21 21 21 21 21 21 21
28 28 27 27 27 27 27 27 26 26 26 26 27 26 26 26 26 26 25 25 24 24 23 23 23 22 22 22 22 22 22 21 21 21 21 21 21 21 21 21 21 21
28 28 27 27 27 27 27 27 26 26 26 26 27 27 26 26 26 25 25 24 24 24 23 23 22 22 22 22 22 21 21 21 21 21 21 21 21 21 21 21 21 21
28 28 27 27 27 27 27 26 26 26 26 27 27 26 26 26 25 25 24 24 24 23 23 22 22 22 22 22 21 21 21 21 21 21 21 21 21 21 21 21 21 21
28 28 27 27 27 27 26 26 26 26 26 27 26 25 25 25 25 25 24 24 23 23 23 22 22 22 22 22 22 22 21 21 21 21 21 21 21 21 21 21 21 20
29 28 28 27 27 27 26 26 26 26 26 26 26 25 25 24 24 24 24 24 23 23 23 23 22 22 22 22 22 22 22 22 22 21 20 20 20 20 20 20 20 20
29 28 27 27 27 26 26 26 26 26 26 25 25 25 24 24 24 24 23 23 23 23 23 23 23 22 22 22 22 22 22 22 22 21 20 20 20 20 20 20 20 20
28 28 27 27 26 26 26 26 26 26 25 25 25 25 24 24 24 23 23 23 23 23 23 23 22 22 22 22 22 22 22 22 21 20 20 20 20 19 19 20 20 20
Height
784 786 788 790 793 794 796 798 799 801 803 804 805 806 808 810 812 814 816 818 820 821 823 824 826 827 828 829 830 831 833 834 835 837 838 839 839 840 841 842 842 843
781 783 785 787 789 791 793 795 797 798 800 801 802 804 806 808 809 811 814 816 818 819 821 822 824 825 826 827 829 830 832 833 834 835 837 838 839 839 840 841 841 842
777 780 782 784 785 788 790 792 794 795 796 797 799 802 804 805 807 809 812 814 815 817 819 820 821 822 824 825 827 828 830 831 833 834 835 836 837 838 839 840 840 841
774 776 778 780 782 785 787 790 791 792 793 795 797 799 801 803 805 807 809 811 813 815 816 818 819 820 821 823 825 827 828 829 831 832 833 834 835 837 838 839 839 840
771 773 774 777 779 782 785 786 787 789 790 792 794 796 798 800 802 804 806 808 810 812 813 815 816 818 819 821 823 825 826 827 829 830 831 832 834 835 836 837 838 838
768 770 771 773 776 779 781 782 784 785 787 789 791 793 795 797 799 801 803 805 807 809 810 812 814 815 817 818 820 822 824 825 827 828 829 830 832 833 834 835 836 836
765 766 767 771 774 776 778 779 780 781 784 786 788 790 792 794 796 798 799 802 804 805 807 808 810 812 814 816 817 819 821 823 825 826 827 828 829 831 831 833 834 834
760 762 764 768 771 773 774 775 777 778 781 783 784 786 788 790 793 795 797 799 801 802 804 805 807 809 811 813 815 817 818 821 822 823 825 826 827 828 829 830 831 832
756 758 762 765 767 769 770 771 773 775 777 779 781 783 785 787 789 792 794 796 798 799 801 802 804 806 808 810 812 813 815 817 819 820 822 823 824 825 826 827 829 830
752 754 758 761 763 765 765 767 770 772 774 775 777 780 782 784 786 788 790 792 794 796 797 799 801 802 804 807 809 810 812 814 816 817 819 820 821 822 824 825 826 827
748 751 754 756 759 760 761 763 766 768 769 771 774 776 778 780 783 785 787 788 789 791 794 795 797 799 801 803 805 808 809 811 813 815 816 817 819 820 822 823 824 825
744 747 749 751 754 755 756 760 762 764 765 767 769 772 774 776 778 780 782 784 785 788 790 792 794 796 797 800 803 805 807 809 811 813 814 815 817 818 819 821 822 823
739 742 744 746 748 750 752 756 758 760 761 763 765 768 770 772 774 776 777 779 782 784 786 788 790 793 795 797 800 802 804 806 808 810 812 813 815 815 817 818 820 821
734 737 739 741 743 745 749 751 753 755 757 759 761 763 765 767 769 771 774 776 779 781 783 786 788 790 792 794 796 799 801 803 805 808 809 811 813 814 815 816 817 818
729 732 735 737 739 741 744 746 748 751 753 755 757 759 761 763 765 768 771 773 776 778 781 783 785 786 788 790 793 796 798 801 803 805 807 809 811 812 813 814 815 816
725 728 730 733 734 736 739 741 744 747 750 752 753 755 758 761 764 766 768 770 773 775 778 780 782 783 785 788 790 793 796 798 800 803 805 807 809 810 811 812 813 814
721 723 725 727 729 732 734 737 741 743 746 749 751 753 756 759 762 764 766 769 771 773 775 777 779 781 783 786 788 791 794 796 798 801 803 805 807 808 809 810 810 811
715 718 720 723 725 728 731 734 738 741 744 747 749 751 754 757 760 762 764 767 769 771 773 774 776 778 780 784 787 789 792 794 797 799 801 803 805 806 807 808 808 809
710 713 715 718 721 725 728 731 735 739 741 744 747 749 752 754 757 759 761 764 766 768 770 771 774 776 778 782 785 787 791 793 795 798 799 801 802 803 804 805 805 807
705 707 711 714 717 722 725 728 732 735 738 742 744 747 749 751 753 755 757 760 762 764 766 768 771 773 776 780 783 786 789 792 794 795 797 798 799 800 801 802 803 804
699 702 707 710 714 719 722 725 729 732 736 739 741 743 745 747 749 752 754 756 759 761 764 766 768 771 775 778 782 785 788 790 791 792 794 795 796 797 798 799 800 802
693 698 702 706 711 715 719 723 727 729 733 735 737 740 741 744 746 748 750 753 756 758 761 764 767 770 773 777 779 782 784 786 788 789 791 792 793 795 796 797 798 800
688 693 697 702 708 712 716 720 723 726 729 731 734 736 738 741 743 745 748 750 752 755 758 760 764 767 770 773 776 778 781 782 784 786 788 790 792 794 795 795 796 798
683 688 693 698 704 708 712 716 718 722 725 727 730 733 735 738 741 744 747 749 752 755 757 759 761 763 766 769 772 775 777 779 781 783 785 788 789 791 793 793 794 796
679 684 689 694 699 703 708 711 715 719 722 725 728 731 734 737 740 743 747 750 752 755 757 759 760 761 764 767 770 773 775 777 779 780 782 785 787 788 790 791 792 794
674 679 684 689 694 699 704 708 712 716 720 724 727 730 733 737 740 743 746 749 752 754 757 759 760 760 762 765 767 770 773 774 776 778 780 782 784 786 788 789 791 792
Wind_Speed
34 34 33 33 32 31 31 32 32 32 31 31 31 30 31 32 30 31 29 27 26 26 26 22 19 21 21 17 15 18 19 17 14 13 12 13 14 13 11 10 11 10
35 35 34 33 33 32 32 32 33 33 33 32 32 31 32 32 31 32 30 28 27 27 26 23 20 22 24 21 18 19 19 16 15 14 13 13 14 13 11 11 10 9
36 35 35 34 34 33 32 32 34 34 33 33 33 32 32 32 32 33 31 29 29 28 25 24 23 24 24 23 22 21 19 17 18 17 14 15 15 14 13 12 10 9
36 36 37 36 35 34 33 32 34 35 34 33 33 33 33 31 33 35 33 31 31 29 26 24 25 25 25 23 23 23 22 20 20 19 16 17 17 16 15 14 11 9
37 37 37 37 35 35 34 33 35 36 35 34 33 34 34 33 33 35 34 33 33 31 28 26 25 25 25 24 23 23 23 23 22 21 19 18 18 17 16 15 13 12
37 38 38 37 36 36 36 35 36 36 35 35 35 35 35 35 35 35 34 35 35 33 30 29 27 26 25 26 25 23 24 24 23 23 22 19 18 18 17 16 16 15
38 39 38 37 36 37 37 37 37 38 37 36 36 36 36 37 37 35 35 36 36 34 33 32 30 28 27 27 27 25 24 24 23 24 24 21 19 18 18 18 17 16
39 40 38 36 36 37 39 38 38 38 38 37 37 37 37 38 38 36 36 36 36 35 34 33 32 30 29 29 29 28 26 25 25 24 25 24 22 20 21 20 18 17
40 40 38 37 37 38 40 40 39 38 38 39 39 38 37 38 38 38 37 37 37 35 35 35 34 32 31 30 31 31 29 28 27 27 26 26 25 24 23 22 21 19
40 39 38 38 38 39 41 42 40 39 40 40 39 38 38 37 37 38 38 38 38 37 36 36 35 34 33 32 32 32 32 31 30 29 28 27 27 26 24 23 23 22
40 39 39 39 40 40 42 42 40 39 41 41 40 39 38 38 38 38 38 39 39 39 38 37 37 36 36 35 34 33 33 33 32 31 30 28 26 26 25 24 23 23
40 39 40 41 42 42 42 41 40 40 40 41 41 39 38 38 38 39 39 40 40 40 39 39 38 38 38 36 35 34 33 33 33 32 32 30 27 26 25 25 24 23
41 41 41 42 43 44 42 40 40 40 40 41 42 40 39 39 39 40 40 40 39 39 39 39 38 38 38 37 36 35 34 34 33 32 32 31 29 27 26 25 25 24
42 42 43 44 45 45 42 41 41 41 41 41 41 41 41 41 41 40 39 38 38 38 38 38 38 38 38 38 37 36 35 34 33 32 31 30 29 27 26 25 25 25
42 42 42 44 44 44 43 43 42 42 41 40 40 41 41 40 39 39 38 37 37 37 37 37 38 38 39 39 38 36 35 34 33 32 32 31 29 27 25 24 24 25
42 42 42 43 44 44 44 44 43 42 40 39 39 40 39 38 36 35 36 36 35 35 36 36 37 38 38 39 39 38 36 34 33 32 32 30 29 28 26 25 25 25
42 42 42 43 44 44 43 43 42 41 39 37 37 36 36 35 34 33 33 34 34 34 34 35 36 37 37 38 39 38 36 35 33 33 31 30 28 27 27 27 26 25
42 42 42 43 43 42 41 41 40 38 36 34 32 32 33 32 32 32 32 32 33 33 34 35 35 35 36 37 38 38 37 34 33 32 31 29 28 27 27 27 27 26
42 42 42 42 41 41 40 39 37 35 33 32 30 29 29 30 30 30 31 31 32 32 33 34 34 34 34 35 37 38 36 34 32 30 29 29 28 27 27 27 27 26
42 41 40 39 40 39 38 36 35 33 32 31 29 27 27 29 30 30 30 31 31 32 32 33 33 33 33 33 34 36 36 34 32 30 29 28 28 28 28 27 27 26
41 40 39 38 38 38 36 34 33 32 30 29 29 29 29 29 30 29 29 29 30 31 31 30 30 30 30 30 31 33 34 35 33 31 29 27 27 29 29 27 26 24
42 40 38 38 37 36 34 33 32 30 29 29 29 29 28 28 29 29 28 28 28 29 29 27 26 27 27 28 29 31 34 36 35 32 28 26 25 26 27 26 25 23
41 40 38 37 36 35 32 31 31 31 31 31 29 27 27 27 28 28 28 27 27 27 27 26 25 25 26 27 29 31 34 36 36 33 28 24 21 21 23 23 22 20
41 40 38 37 35 34 33 32 32 32 32 31 29 27 27 26 26 26 26 26 26 25 26 25 25 24 25 25 27 30 32 34 35 34 29 25 22 20 20 21 20 18
39 39 38 37 36 35 34 34 32 31 31 29 28 27 25 25 24 24 23 24 24 23 23 24 24 23 23 24 25 27 30 33 33 31 28 26 24 21 19 20 20 19
39 40 40 39 38 36 34 33 32 30 29 28 27 24 23 23 23 23 23 23 23 22 23 23 22 23 23 24 25 26 29 32 32 29 27 26 24 22 21 21 20 20
Wind_Direction
197 195 193 194 195 197 196 197 197 193 190 191 192 192 192 192 192 191 192 191 189 190 189 186 184 184 185 188 185 182 186 190 190 191 191 196 199 196 200 210 215 218
196 195 194 194 196 199 200 200 198 194 195 198 198 196 195 195 193 192 192 189 190 190 189 189 187 184 186 190 185 179 183 187 186 189 193 197 201 203 205 211 212 214
196 195 195 196 197 199 201 202 198 196 199 201 200 197 196 196 194 193 191 188 190 191 190 192 191 188 190 193 193 188 185 186 187 193 199 200 204 207 209 215 214 212
196 196 196 197 198 199 200 199 196 197 200 201 200 198 196 195 194 193 192 190 191 193 194 196 194 191 192 195 198 197 193 191 190 193 201 202 203 206 212 217 217 218
197 197 197 198 198 198 199 197 196 197 199 200 201 200 198 196 193 192 193 193 194 195 196 197 195 193 194 196 199 200 198 197 195 195 200 204 205 209 214 215 216 223
197 198 199 198 197 197 198 199 199 199 200 200 201 202 200 197 195 194 195 195 195 196 196 196 196 195 196 196 199 201 201 201 200 200 202 206 208 211 214 214 218 225
197 199 199 197 196 197 199 201 201 202 202 201 201 202 201 199 197 197 197 196 195 195 195 196 197 197 197 197 198 200 203 203 203 203 205 208 210 211 211 213 219 223
198 199 199 196 195 198 201 202 202 202 202 202 202 202 201 200 199 198 197 195 194 196 197 197 198 199 198 198 198 199 202 204 205 206 207 208 211 212 211 212 218 224
198 199 197 195 196 199 203 204 203 202 202 202 203 203 202 201 200 199 198 197 197 197 199 199 199 200 200 200 200 200 202 204 205 208 209 209 213 217 215 214 217 222
199 198 196 195 197 200 204 205 204 203 203 204 204 204 204 203 203 202 201 200 200 200 200 200 199 200 200 202 202 202 203 205 206 208 210 212 216 220 220 218 218 222
199 197 195 196 198 202 206 206 204 204 205 205 205 205 205 205 204 204 203 202 202 202 202 202 201 200 200 201 204 205 206 208 209 209 211 214 217 220 221 220 221 224
198 196 196 197 199 203 206 206 205 206 206 206 206 206 206 206 205 205 204 204 204 204 204 204 203 202 201 201 203 206 208 210 212 213 213 215 217 218 218 219 221 224
198 197 197 198 200 204 206 206 206 207 207 207 207 207 206 207 207 206 206 206 206 205 205 205 203 202 201 200 202 205 207 209 212 214 216 218 220 220 220 222 225 228
199 199 198 199 202 205 206 207 207 208 209 209 208 208 208 209 208 208 207 207 206 206 206 205 203 202 201 200 202 204 206 209 211 213 215 217 220 223 224 225 227 228
200 200 199 201 203 205 206 208 209 209 210 210 209 209 210 211 210 209 207 206 206 206 206 205 204 203 202 201 201 202 204 207 209 212 214 215 217 220 222 223 224 225
201 200 200 201 203 205 207 208 209 210 210 210 210 211 211 211 211 210 208 207 206 205 205 205 205 205 204 203 202 202 203 205 207 210 212 214 217 219 222 225 225 227
201 201 201 202 204 205 207 208 209 210 211 211 210 210 211 211 210 210 209 208 207 205 205 205 206 207 206 205 204 203 204 205 206 209 211 214 218 220 223 226 226 227
200 201 202 203 204 205 206 208 209 210 210 210 210 209 208 209 208 208 208 208 207 206 205 206 207 208 207 206 205 205 205 206 207 209 212 214 217 220 224 225 225 223
200 201 202 203 204 205 206 207 207 208 208 208 207 207 206 205 206 207 207 206 205 205 206 207 208 208 208 207 206 206 206 206 208 210 213 216 217 219 223 225 223 220
199 200 201 202 202 203 205 205 205 205 205 205 204 204 204 203 204 206 206 205 204 205 205 206 207 207 207 207 205 205 206 208 209 210 212 216 218 220 223 224 223 221
198 199 199 199 200 201 201 201 202 201 199 200 203 205 205 203 203 203 203 202 203 204 204 204 204 206 207 206 206 206 208 211 212 211 212 217 221 222 223 224 225 224
197 196 196 195 196 197 197 196 196 195 194 197 201 203 202 200 200 200 199 198 199 201 200 199 200 203 205 206 208 209 210 212 213 212 211 216 219 220 221 224 225 222
195 193 192 191 191 191 190 190 190 190 192 195 195 192 192 194 195 196 197 196 195 194 193 192 193 198 202 205 207 209 209 211 213 212 210 212 214 215 217 218 217 216
193 190 187 185 185 186 185 184 185 185 188 192 190 187 188 190 192 193 195 196 195 193 192 191 191 195 199 202 206 208 207 209 212 213 211 210 211 213 213 211 211 215
188 185 182 180 181 182 182 180 179 181 184 186 186 186 187 188 189 189 189 193 196 196 197 197 195 195 197 200 203 205 206 210 212 211 209 210 212 213 214 216 221 226
182 179 177 177 177 178 178 177 176 178 181 181 181 182 182 182 184 184 183 186 192 195 198 199 196 195 196 199 202 203 206 209 211 209 208 209 210 212 216 223 229 230